User: anonymous   Login
Location: Bridgewater Hill Observatory
(43.5992°N, 72.6989°W)
Time: 22:17:35
(UTC-04:00)
Language:

Cosmos 1452 Rocket - Orbit

View from above orbital plane
View from above orbital plane
View from above satellite
View from above satellite

Ground track
Ground track

The orbit data is extracted from the following two-line orbital elements,

1 13992U 83031B   16240.24581624  .00000005  00000-0  10814-4 0  9997
2 13992  74.0537 186.2425 0006195 246.0324 218.6800 14.36048252746616
Epoch (UTC): 27 August 2016 05:53:58
Eccentricity: 0.0006195
inclination: 74.0537°
perigee height: 767 km
apogee height: 776 km
right ascension of ascending node: 186.2425°
argument of perigee: 246.0324°
revolutions per day: 14.36048252
mean anomaly at epoch: 218.6800°
orbit number at epoch: 74661

The dashed part of the orbit path shows where the satellite is in the earth's shadow,  

DLR